RJOA

Hiroshima Airport

Airport
ICAO code
RJOA
IATA Code
HIJ
Summary
ICAO Region
APAC
ICAO Territory
Location

Mihara, Hiroshima, Chūgoku

Serving
Hiroshima
Elevation
1086 ft
Coordinates
34° 26' 23" N , 132° 55' 9" E
KCC
Metar
RJOA 271100Z 01011KT CAVOK 03/M05 Q1026

Airport in the city of Mihara, Hiroshima Prefecture, Japan. Located 50 km east of Hiroshima, it is the largest airport in the Chūgoku region.

Climatology

Humid Sub-tropical climate (Köppen climate classification Cfa)

Runways

Designator Length Width Surface Rops
10/28 3000 61 ASP Yes/Yes

Airport map

Aerial View

Airport accidents

SKYbrary Partners:

Safety knowledge contributed by: